Regional Weather Roundup
Issued by NWS Cleveland, OH

Home | Current Version | Previous Version | Text Only | Print | Product List | Glossary On
Versions: 1 2 3 4 5 6 7 8 9 10 11 12 13 14 15 16 17 18 19 20 21 22 23 24 25 26 27 28 29 30 31 32 33 34 35 36 37 38 39 40 41 42 43 44 45 46 47 48 49 50
000
ASUS41 KCLE 240812
RWRCLE
OHIO REGIONAL WEATHER ROUNDUP
NATIONAL WEATHER SERVICE WILMINGTON, OH
400 AM EDT TUE MAY 24 2016

NOTE: "FAIR" INDICATES FEW OR NO CLOUDS BELOW 12,000 FEET WITH NO
SIGNIFICANT WEATHER AND/OR OBSTRUCTIONS TO VISIBILITY.

OHZ001>008-015>018-024>027-034-035-043-044-240900-
   NORTHWEST OHIO

CITY           SKY/WX    TMP DP  RH WIND       PRES   REMARKS
DEFIANCE       FAIR      50  45  83 CALM      30.00S
FINDLAY        FAIR      56  45  66 SE5       30.00F
TOLEDO EXPRESS FAIR      50  48  93 CALM      29.99F
TOLEDO EXEC    FAIR      56  47  71 SE3       30.01S
LIMA           FAIR      55  47  74 S8        30.01F
$$

OHZ009>014-019>023-028>033-038-089-240900-
   NORTHEAST OHIO

CITY           SKY/WX    TMP DP  RH WIND       PRES   REMARKS
CLE-HOPKINS    FAIR      54  46  74 S3        30.04S
CLE-LAKEFRONT  FAIR      58  48  69 S6        30.00S
CUY CO. ARPT   NOT AVBL
LORAIN-ELYRIA  FAIR      51  45  79 CALM      30.02F
ASHTABULA      FAIR      46  44  93 W3        30.03R
AKRON-CANTON   FAIR      53  46  77 W3        30.03S
WOOSTER        FAIR      49  46  90 CALM      30.04S
MANSFIELD      FAIR      53  50  89 CALM      30.04S
YOUNGSTOWN     FAIR      48  45  89 CALM      30.02R
$$

OHZ042-051>053-060>062-070>072-077>081-240900-
  SOUTHWEST OHIO

CITY           SKY/WX    TMP DP  RH WIND       PRES   REMARKS
CINC-COVINGTON FAIR      55  51  86 CALM      30.02F
CINC-LUNKEN    FAIR      50  50 100 CALM      30.04S FOG
HAMILTON       FAIR      51  49  92 CALM      30.04S
DAYTON         FAIR      58  48  69 SW6       30.04S
WRIGHT-PAT AFB FAIR      53  51  93 CALM      30.03S
DAYTON GENERAL FAIR      58  47  66 CALM      30.03R
WILMINGTON     FAIR      53  51  93 CALM      30.04R
$$

OHZ036-037-039>041-045>050-054>059-063>069-073>076-082>088-240900-
  CENTRAL AND SOUTHEAST OHIO

CITY           SKY/WX    TMP DP  RH WIND       PRES   REMARKS
COLUMBUS       FAIR      52  50  93 CALM      30.03R
OSU AIRPORT    FAIR      54  49  83 CALM      30.03R
BOLTON FIELD   FAIR      51  50  97 CALM      30.04S
RICKENBACK AFB FAIR      53  51  93 CALM      30.03S
NEWARK         FAIR      50  47  89 CALM      30.03S FOG
MARION         FAIR      51  48  89 CALM      30.03S
LANCASTER      FAIR      49  48  97 CALM      30.04S FOG
ZANESVILLE     FAIR      53  49  86 CALM      30.03S
NEW PHILLY     FAIR      52  48  86 CALM      30.04S
$$



USA.gov is the U.S. government's official web portal to all federal, state and local government web resources and services.